Change the Weather History Date:

Saturday, March 22, 2014

  Actual Average Record
Temperature  
Mean Temperature 12 °F 30 °F  
Max Temperature 19 °F 40 °F 73 °F (1945)
Min Temperature 5 °F 21 °F -18 °F (1899)
Degree Days  
Heating Degree Days 53 35  
Month to date heating degree days 917 872  
Since 1 July heating degree days 8185 7631  
Cooling Degree Days 0 0  
Month to date cooling degree days 0 0  
Year to date cooling degree days 0 0  
Moisture  
Dew Point 4 °F    
Average Humidity 69    
Maximum Humidity 83    
Minimum Humidity 54    
Precipitation  
Precipitation 0.00 in 0.03 in 0.46 in (2011)
Month to date precipitation 0.03 0.56  
Year to date precipitation 0.42 1.41  
Sea Level Pressure  
Sea Level Pressure 30.54 in    
Wind  
Wind Speed 11 mph (NNW)    
Max Wind Speed 18 mph    
Max Gust Speed 25 mph    
Visibility 10 miles    
Events      
T = Trace of Precipitation, MM = Missing Value Source: NWS Daily Summary

Daily Weather History Graph

Daily Weather History Graph

Search for Another Location

Airport or City:

Trip Planner

Search our weather history database for the weather conditions in past years. The results will help you decide how hot, cold, wet, or windy it might be!

Date:

Astronomy

Mar. 22, 2014 Rise Set
Actual Time 7:33 AM CDT 7:50 PM CDT
Civil Twilight 7:03 AM CDT 8:20 PM CDT
Nautical Twilight 6:27 AM CDT 8:56 PM CDT
Astronomical Twilight 5:50 AM CDT 9:33 PM CDT
Moon 1:28 AM CDT 10:59 AM CDT
Length of Visible Light 13h 17m
Length of Day
12h 16m
Waning Gibbous, 65% of the Moon is Illuminated
Mar 22
Waning Gibbous
Mar 23
Last Quarter
Mar 30
New
Apr 7
First Quarter
Apr 15
Full

Hourly Weather History & Observations

Time (CDT) Temp. Windchill Dew Point Humidity Pressure Visibility Wind Dir Wind Speed Gust Speed Precip Events Conditions
12:56 AM 12.0 °F -2.7 °F 6.1 °F 77% 30.49 in 10.0 mi North 12.7 mph - N/A   Mostly Cloudy
1:03 AM 12.0 °F -3.4 °F 6.1 °F 77% 30.40 in 10.0 mi North 13.8 mph - N/A   Mostly Cloudy
1:56 AM 10.9 °F -5.4 °F 5.0 °F 77% 30.50 in 10.0 mi NNW 15.0 mph - N/A   Mostly Cloudy
2:56 AM 10.9 °F -3.4 °F 3.9 °F 73% 30.50 in 10.0 mi North 11.5 mph - N/A   Mostly Cloudy
3:18 AM 10.0 °F -2.9 °F 5.0 °F 80% 30.41 in 9.0 mi NNW 9.2 mph - N/A   Mostly Cloudy
3:56 AM 10.0 °F -5.9 °F 3.9 °F 76% 30.51 in 10.0 mi NNW 13.8 mph - N/A   Overcast
4:56 AM 8.1 °F -8.4 °F 1.9 °F 76% 30.53 in 10.0 mi NW 13.8 mph - N/A   Mostly Cloudy
5:11 AM 8.1 °F -7.7 °F 1.9 °F 76% 30.42 in 10.0 mi NNW 12.7 mph - N/A   Scattered Clouds
5:56 AM 7.0 °F -7.5 °F 1.9 °F 80% 30.53 in 10.0 mi NNW 10.4 mph - N/A   Clear
6:56 AM 6.1 °F -7.8 °F -0.0 °F 76% 30.55 in 10.0 mi NW 9.2 mph - N/A   Clear
7:56 AM 6.1 °F -8.7 °F -0.0 °F 76% 30.56 in 10.0 mi NNW 10.4 mph - N/A   Clear
8:56 AM 7.0 °F -11.0 °F -0.0 °F 73% 30.58 in 10.0 mi NNW 16.1 mph - N/A   Clear
9:56 AM 9.0 °F -6.6 °F 1.9 °F 73% 30.59 in 10.0 mi NNW 12.7 mph - N/A   Partly Cloudy
10:16 AM 10.0 °F -5.2 °F 3.0 °F 73% 30.49 in 10.0 mi NNW 12.7 mph - N/A   Mostly Cloudy
10:56 AM 10.0 °F -6.5 °F 3.0 °F 73% 30.60 in 10.0 mi NW 15.0 mph - N/A   Mostly Cloudy
11:12 AM 12.0 °F -3.4 °F 3.9 °F 70% 30.49 in 10.0 mi NNW 13.8 mph - N/A   Scattered Clouds
11:22 AM 10.9 °F -4.1 °F 3.0 °F 70% 30.50 in 10.0 mi NNW 12.7 mph - N/A   Mostly Cloudy
11:56 AM 12.0 °F -5.1 °F 3.9 °F 70% 30.61 in 10.0 mi North 17.3 mph - N/A   Mostly Cloudy
12:56 PM 14.0 °F -0.2 °F 5.0 °F 67% 30.60 in 10.0 mi NNW 12.7 mph - N/A   Mostly Cloudy
1:56 PM 15.1 °F -0.1 °F 3.9 °F 61% 30.59 in 10.0 mi NNW 15.0 mph - N/A   Mostly Cloudy
2:38 PM 15.1 °F -0.1 °F 3.9 °F 61% 30.48 in 10.0 mi NNW 15.0 mph 21.9 mph N/A   Mostly Cloudy
2:56 PM 17.1 °F 2.5 °F 5.0 °F 59% 30.58 in 10.0 mi NNW 15.0 mph - N/A   Mostly Cloudy
3:56 PM 17.1 °F 3.0 °F 3.9 °F 56% 30.57 in 10.0 mi North 13.8 mph - N/A   Mostly Cloudy
4:56 PM 17.1 °F 2.0 °F 5.0 °F 59% 30.56 in 10.0 mi NNW 16.1 mph 20.7 mph N/A   Partly Cloudy
5:56 PM 18.0 °F 3.6 °F 5.0 °F 57% 30.57 in 10.0 mi North 15.0 mph - N/A   Scattered Clouds
6:56 PM 17.1 °F 5.0 °F 6.1 °F 62% 30.57 in 10.0 mi NNW 10.4 mph - N/A   Scattered Clouds
7:56 PM 16.0 °F 6.3 °F 3.9 °F 59% 30.57 in 10.0 mi WNW 6.9 mph - N/A   Scattered Clouds
8:56 PM 12.9 °F 5.2 °F 6.1 °F 74% 30.58 in 10.0 mi West 4.6 mph - N/A   Clear
9:56 PM 12.9 °F 6.9 °F 6.1 °F 74% 30.58 in 10.0 mi NW 3.5 mph - N/A   Clear
10:56 PM 12.0 °F 4.1 °F 7.0 °F 80% 30.58 in 10.0 mi West 4.6 mph - N/A   Clear
11:56 PM 10.0 °F 1.8 °F 6.1 °F 84% 30.59 in 10.0 mi WNW 4.6 mph - N/A   Clear